Weather History for KDUJ - January, 2013

Change the Weather History Date:

Wednesday, January 2, 2013

  Actual Average Record
Temperature  
Mean Temperature 16 °F 24 °F  
Max Temperature 21 °F 31 °F 51 °F (2005)
Min Temperature 11 °F 17 °F -4 °F (1968)
Degree Days  
Heating Degree Days 49 41  
Month to date heating degree days 90 82  
Since 1 July heating degree days 2548 2744  
Cooling Degree Days 0 0  
Month to date cooling degree days 0 0  
Year to date cooling degree days 0 0  
Moisture  
Dew Point 10 °F    
Average Humidity 78    
Maximum Humidity 88    
Minimum Humidity 67    
Precipitation  
Precipitation T in 0.11 in 1.16 in (1965)
Month to date precipitation 0.01 0.22  
Sea Level Pressure  
Sea Level Pressure 30.12 in    
Wind  
Wind Speed 8 mph (West)    
Max Wind Speed 17 mph    
Max Gust Speed 21 mph    
Visibility 9 miles    
Events Snow    
T = Trace of Precipitation, MM = Missing Value Source: NWS Daily Summary

Daily Weather History Graph

Daily Weather History Graph

Search for Another Location

Airport or City:

Trip Planner

Search our weather history database for the weather conditions in past years. The results will help you decide how hot, cold, wet, or windy it might be!

Date:

Astronomy

Jan. 02, 2013 Rise Set
Actual Time 7:41 AM EST 4:58 PM EST
Civil Twilight 7:10 AM EST 5:29 PM EST
Nautical Twilight 6:35 AM EST 6:04 PM EST
Astronomical Twilight 6:02 AM EST 6:37 PM EST
Moon 10:32 PM EST (1/2) 10:19 AM EST (1/2)
Length of Visible Light 10h 19m
Length of Day
9h 17m
Waning Gibbous, 75% of the Moon is Illuminated
Jan 2
Waning Gibbous
Jan 4
Last Quarter
Jan 11
New
Jan 18
First Quarter
Jan 26
Full

Hourly Weather History & Observations

Time (EST) Temp. Windchill Dew Point Humidity Pressure Visibility Wind Dir Wind Speed Gust Speed Precip Events Conditions
12:56 AM 17.1 °F 5.0 °F 10.9 °F 77% 30.04 in 10.0 mi WSW 10.4 mph - N/A   Overcast
1:56 AM 17.1 °F 6.6 °F 10.9 °F 77% 30.04 in 9.0 mi West 8.1 mph - N/A   Overcast
2:56 AM 16.0 °F 5.3 °F 10.9 °F 81% 30.04 in 10.0 mi West 8.1 mph - N/A   Overcast
3:56 AM 14.0 °F 2.9 °F 10.0 °F 84% 30.06 in 10.0 mi West 8.1 mph - N/A   Overcast
4:30 AM 12.2 °F 0.7 °F 8.6 °F 85% 29.96 in 10.0 mi West 8.1 mph - N/A   Partly Cloudy
4:56 AM 14.0 °F 3.9 °F 10.0 °F 84% 30.05 in 10.0 mi West 6.9 mph - N/A   Mostly Cloudy
5:56 AM 15.1 °F 4.2 °F 10.0 °F 80% 30.06 in 10.0 mi West 8.1 mph - N/A   Overcast
6:56 AM 15.1 °F 1.8 °F 10.0 °F 80% 30.09 in 9.0 mi WSW 11.5 mph - N/A   Overcast
7:56 AM 16.0 °F 5.3 °F 10.9 °F 81% 30.09 in 4.0 mi West 8.1 mph - 0.00 in Snow Light Snow
8:56 AM 16.0 °F 2.3 °F 10.9 °F 81% 30.11 in 8.0 mi WSW 12.7 mph - 0.00 in   Overcast
9:56 AM 17.1 °F 3.6 °F 10.9 °F 77% 30.12 in 10.0 mi West 12.7 mph - N/A   Overcast
10:56 AM 18.0 °F 6.9 °F 12.0 °F 78% 30.13 in 5.0 mi West 9.2 mph - N/A   Haze
11:56 AM 19.0 °F 6.8 °F 12.9 °F 77% 30.13 in 6.0 mi West 11.5 mph 18.4 mph N/A   Haze
12:56 PM 19.9 °F 5.7 °F 12.0 °F 71% 30.14 in 7.0 mi West 16.1 mph 20.7 mph N/A   Overcast
1:56 PM 19.9 °F 8.6 °F 10.9 °F 68% 30.14 in 10.0 mi West 10.4 mph 19.6 mph N/A   Overcast
2:56 PM 19.9 °F 7.3 °F 10.9 °F 68% 30.15 in 10.0 mi West 12.7 mph - N/A   Overcast
3:54 PM 19.4 °F 8.6 °F 10.4 °F 68% 30.07 in 10.0 mi West 9.2 mph - N/A   Scattered Clouds
3:56 PM 19.0 °F 6.8 °F 10.9 °F 71% 30.16 in 10.0 mi West 11.5 mph - N/A   Partly Cloudy
4:33 PM 17.6 °F 6.4 °F 10.4 °F 73% 30.08 in 10.0 mi West 9.2 mph - N/A   Mostly Cloudy
4:56 PM 18.0 °F 8.7 °F 10.0 °F 71% 30.18 in 10.0 mi West 6.9 mph - N/A   Mostly Cloudy
5:56 PM 18.0 °F 9.8 °F 10.0 °F 71% 30.17 in 10.0 mi West 5.8 mph - N/A   Overcast
6:29 PM 17.6 °F 9.3 °F 10.4 °F 73% 30.09 in 10.0 mi West 5.8 mph - N/A   Scattered Clouds
6:40 PM 17.6 °F 9.3 °F 10.4 °F 73% 30.09 in 10.0 mi West 5.8 mph - N/A   Mostly Cloudy
6:56 PM 17.1 °F 8.7 °F 10.0 °F 74% 30.19 in 10.0 mi West 5.8 mph - N/A   Overcast
7:56 PM 17.1 °F 7.6 °F 10.0 °F 74% 30.19 in 10.0 mi WNW 6.9 mph - N/A   Mostly Cloudy
8:07 PM 17.6 °F 7.3 °F 10.4 °F 73% 30.10 in 10.0 mi WNW 8.1 mph - N/A   Scattered Clouds
8:56 PM 15.1 °F 7.7 °F 9.0 °F 77% 30.21 in 10.0 mi West 4.6 mph - N/A   Clear
9:56 PM 15.1 °F 7.7 °F 9.0 °F 77% 30.21 in 10.0 mi West 4.6 mph - N/A   Clear
10:56 PM 14.0 °F 8.2 °F 9.0 °F 80% 30.24 in 10.0 mi West 3.5 mph - N/A   Clear
11:56 PM 12.0 °F - 9.0 °F 88% 30.22 in 10.0 mi Calm Calm - N/A   Clear